Location: Woodhurst
(52.3667°N, 0.0667°W)
Time: 06:55:48
(UTC+00:00)

Cosmos 1500 Rocket - Pass Details

Date: 19 May 2025
Orbit: 598 x 623 km, 82.5° (Epoch: 18 June)

Event Time Altitude Azimuth Distance (km) Brightness Sun altitude
Rises 22:45:02 0° 353° (N) 2,879 8.7 -16.0°
Reaches altitude 10° 22:47:20 10° 359° (N) 1,974 7.4 -16.1°
Maximum altitude 22:51:33 47° 74° (ENE) 817 4.1 -16.3°
Enters shadow 22:53:39 26° 134° (SE) 1,208 4.6 -16.4°
